Location: Burla
(50.9568°N, 10.4983°E)
Time: 20:40:01
(UTC+00:00)

USA 307 - Pass Details

Date: 18 January 2026
Orbit: 495 x 502 km, 54.0° (Epoch: 10 March)

Event Time Altitude Azimuth Distance (km) Brightness Sun altitude
Exits shadow 04:32:58 55° 125° (SE) 611 3.2 -24.4°
Drops below altitude 10° 04:36:08 10° 117° (ESE) 1,694 6.2 -23.9°
Sets 04:38:17 0° 117° (ESE) 2,526 7.3 -23.6°
